SCP
0 0 0 0 0 0 0 0 0 0 0 0 0 0 0 0 0 0 0 0 0 0 0 1 1 1 1 1 1 1 1 1 1 1 1 1 1 1 1 1 1 1 0 0
0 0 0 0 0 0 0 0 0 0 0 0 0 0 0 0 0 0 0 0 0 0 0 1 1 1 1 1 1 1 1 1 1 1 1 1 1 1 1 1 1 1 0 0
0 0 0 0 0 0 0 0 0 0 0 0 0 0 0 0 0 0 0 0 0 0 0 1 1 1 1 1 1 1 1 1 1 1 1 1 1 1 1 1 1 1 0 0
0 0 0 0 0 0 0 0 0 0 0 0 0 0 0 0 0 0 0 0 0 0 0 0 1 1 1 1 1 1 1 1 1 1 1 1 1 1 1 1 1 1 0 0
0 0 0 0 0 0 0 0 0 0 0 0 0 0 0 0 0 0 0 0 0 0 0 0 0 0 1 1 1 1 1 1 1 1 1 1 1 1 1 1 1 1 1 0
0 0 0 0 0 0 0 0 0 0 0 0 0 0 0 0 0 0 0 0 0 0 0 0 0 0 0 1 1 1 1 1 1 1 1 1 1 1 1 1 1 1 1 1
0 0 0 0 0 0 0 0 0 0 0 0 0 0 0 0 0 0 0 0 0 0 0 0 0 0 0 1 1 1 1 1 1 1 1 1 1 1 1 1 1 1 1 1
0 0 0 0 0 0 0 0 0 0 0 0 0 0 0 0 0 0 0 0 0 0 0 0 0 0 0 1 1 1 1 1 1 1 1 1 1 1 1 1 1 0 0 0
0 0 0 0 0 0 0 0 0 0 0 0 0 0 0 0 0 0 0 0 0 0 0 0 0 0 0 0 1 1 1 1 1 1 0 0 0 0 0 0 0 0 0 0
0 0 0 0 0 0 0 0 0 0 0 0 0 0 0 0 0 0 0 0 0 0 0 0 0 0 0 0 1 1 0 1 1 0 0 0 0 0 0 0 0 0 0 0
0 0 0 0 0 0 0 0 0 0 0 0 0 0 0 0 0 0 0 0 0 0 0 0 0 0 0 0 0 0 0 0 0 0 0 0 0 0 0 0 0 0 0 0
0 0 0 0 0 0 0 0 0 0 0 0 0 0 0 0 0 0 0 0 0 0 0 0 0 0 0 0 0 0 0 0 0 0 0 0 0 0 0 0 0 0 0 0
0 0 0 0 0 0 0 0 0 0 0 0 0 0 0 0 0 0 0 0 0 0 0 0 0 0 0 0 0 0 0 0 0 0 0 0 0 0 0 0 0 0 0 0
0 0 0 0 0 0 0 0 0 0 0 0 0 0 0 0 0 0 0 0 0 0 0 0 0 0 0 0 0 0 0 0 0 0 0 0 0 0 0 0 0 0 0 0
0 0 0 0 0 0 0 0 0 0 0 0 0 0 0 0 0 0 0 0 0 0 0 0 0 0 0 0 0 0 0 0 0 0 0 0 0 0 0 0 0 0 0 0
0 0 0 0 0 0 0 0 0 0 0 0 0 0 0 0 0 0 0 0 0 0 0 0 0 0 0 0 0 0 0 0 0 0 0 0 0 0 0 0 0 0 0 0
0 0 0 0 0 0 0 0 0 0 0 0 0 0 0 0 0 0 0 0 0 0 0 0 0 0 0 0 0 0 0 0 0 0 0 0 0 0 0 0 0 0 0 0
0 0 0 0 0 0 0 0 0 0 0 0 0 0 0 0 0 0 0 0 0 0 0 0 0 0 0 0 0 0 0 0 0 0 0 0 0 0 0 0 0 0 0 0
0 0 0 0 0 0 0 0 0 0 0 0 0 0 0 0 0 0 0 0 0 0 0 0 0 0 0 0 0 0 0 0 0 0 0 0 0 0 0 0 0 0 0 0
0 0 0 0 0 0 0 0 0 0 0 0 0 0 0 0 0 0 0 0 0 0 0 0 0 0 0 0 0 0 0 0 0 0 0 0 0 0 0 0 0 0 0 0
0 0 0 0 0 0 0 0 0 0 0 0 0 0 0 0 0 0 0 0 0 0 0 0 0 0 0 0 0 0 0 0 0 0 0 0 0 0 0 0 0 0 0 0
0 0 0 0 0 0 0 0 0 0 0 0 0 0 0 0 0 0 0 0 0 0 0 0 0 0 0 0 0 0 0 0 0 0 0 0 0 0 0 0 0 0 0 0
0 0 0 0 0 0 0 0 0 0 0 0 0 0 0 0 0 0 0 0 0 0 0 0 0 0 0 0 0 0 0 0 0 0 0 0 0 0 0 0 0 0 0 0
0 0 0 0 0 0 0 0 0 0 0 0 0 0 0 0 0 0 0 0 0 0 0 0 0 0 0 0 0 0 0 0 0 0 0 0 0 0 0 0 0 0 0 0
0 0 0 0 0 0 0 0 0 0 0 0 0 0 0 0 0 0 0 0 0 0 0 0 0 0 0 0 0 0 0 0 0 0 0 0 0 0 0 0 0 0 0 0
0 0 0 0 0 0 0 0 0 0 0 0 0 0 0 0 0 0 0 0 0 0 0 0 0 0 0 0 0 0 0 0 0 0 0 0 0 0 0 0 0 0 0 0
Wind_Speed
9 11 12 10 10 8 7 9 9 7 3 6 7 6 5 3 4 4 4 4 5 5 5 5 5 6 7 7 7 8 7 7 6 5 5 5 5 4 4 4 4 5 6 6
10 13 10 7 7 9 10 11 10 7 3 6 6 7 5 3 3 2 3 3 3 3 4 5 5 6 6 7 7 7 8 7 8 6 5 4 4 4 4 3 3 4 5 6
13 5 6 9 10 11 12 11 10 8 5 8 8 8 7 5 3 2 2 2 2 3 3 4 5 6 6 6 6 6 7 7 7 7 5 4 4 4 4 4 4 4 4 5
11 7 7 11 12 11 11 8 9 10 10 8 8 8 5 5 4 2 2 2 2 2 3 3 4 5 5 5 5 6 7 6 6 7 6 7 5 5 5 4 4 4 5 5
8 8 10 11 10 10 9 6 9 11 12 11 10 10 4 5 4 2 1 1 2 2 3 3 4 4 4 5 5 6 6 6 6 6 6 6 5 4 4 4 5 5 5 5
8 6 8 9 7 7 6 7 8 10 11 13 10 10 4 2 2 1 1 1 1 2 3 2 3 4 4 5 5 6 6 6 6 6 6 6 6 5 5 5 5 5 4 5
10 11 8 6 8 9 10 9 7 9 10 8 4 7 1 2 1 1 2 1 1 1 2 2 3 3 3 4 5 5 5 5 5 5 5 6 6 5 6 5 5 4 4 4
9 9 9 8 10 8 10 11 9 8 8 4 5 6 2 3 2 2 2 2 2 2 2 2 2 2 3 4 4 5 5 4 4 4 4 4 4 4 4 4 3 4 3 3
6 5 4 6 8 9 9 11 9 10 10 9 5 3 4 4 3 3 2 2 3 2 2 1 2 2 2 3 3 3 4 4 4 4 4 4 4 3 3 4 4 3 3 3
6 7 5 5 8 8 8 7 7 10 8 9 7 6 3 4 3 3 2 1 2 2 2 2 1 2 2 2 2 2 3 3 4 5 4 4 4 4 3 3 3 3 4 3
7 8 6 7 9 9 8 9 8 9 9 9 7 1 4 3 2 1 1 2 2 2 2 2 2 2 3 2 2 2 3 4 4 4 3 3 4 4 3 3 3 3 4 4
5 7 8 7 3 4 8 9 9 9 8 8 8 1 6 4 3 2 2 2 2 3 2 3 3 3 2 2 2 2 2 3 3 3 3 3 2 3 3 3 3 3 4 5
3 5 8 8 8 7 8 7 9 9 8 8 9 2 7 4 3 3 2 3 3 3 3 3 3 3 2 1 1 1 1 1 2 3 3 3 2 3 3 3 4 4 4 4
4 6 8 9 4 4 6 6 8 10 9 9 8 4 3 2 2 2 2 2 2 3 3 3 3 2 2 2 2 2 1 1 1 2 3 3 3 3 3 3 3 4 4 4
4 7 7 7 6 6 7 8 8 10 10 10 7 6 2 0 1 1 1 1 1 2 3 3 2 2 1 1 1 2 2 1 1 1 2 2 2 2 2 2 3 3 4 4
3 5 6 8 7 7 8 8 8 9 9 9 7 5 1 0 1 1 1 1 1 2 2 3 2 2 1 1 1 1 1 1 1 0 1 1 2 2 3 3 3 3 3 4
5 6 8 8 7 9 9 7 8 7 7 7 7 2 0 1 1 0 1 1 2 2 2 2 2 2 1 1 0 1 1 1 0 0 0 0 1 2 2 2 2 3 4 4
6 7 6 7 7 10 1 2 3 4 3 3 3 1 2 1 0 1 1 1 2 1 1 1 1 1 1 1 1 0 0 1 1 0 0 1 1 1 2 2 3 3 3 4
6 7 6 6 8 6 3 2 2 5 4 2 2 1 0 0 2 3 2 2 1 1 1 1 1 1 1 0 0 1 1 1 1 0 1 1 1 2 2 2 3 3 3 3
5 7 7 7 8 6 1 2 2 5 5 1 1 1 1 2 3 1 2 2 1 2 2 1 1 1 1 1 1 1 1 0 1 1 1 1 2 2 3 3 3 2 3 3
5 6 8 8 8 3 3 1 3 6 1 2 1 1 2 2 3 2 1 1 1 1 2 1 1 1 1 0 1 1 0 1 2 2 2 2 3 3 3 3 2 2 2 2
4 4 5 6 7 3 3 1 2 3 3 1 0 1 1 0 1 1 1 2 2 1 2 2 1 1 1 0 0 0 1 1 2 2 2 2 3 3 2 2 2 2 3 3
3 3 3 2 1 4 1 1 2 2 1 0 1 1 0 0 1 1 2 2 2 1 1 1 1 1 1 0 1 1 1 1 2 2 2 2 3 3 3 3 3 3 3 4
1 1 2 2 1 1 0 0 1 1 1 1 1 1 0 1 1 1 1 1 1 1 1 1 1 1 1 1 1 1 1 2 2 3 3 3 3 3 3 3 3 3 4 4
2 2 3 4 2 2 2 0 1 1 1 0 0 0 0 0 0 1 1 1 1 1 1 2 2 2 2 2 2 2 2 2 3 3 3 3 3 3 3 3 3 4 3 3
3 4 5 3 2 3 3 2 1 1 1 0 0 1 1 0 1 1 1 0 1 1 2 2 2 2 2 2 3 3 3 2 3 3 3 3 3 2 3 3 3 2 3 3
Wind_Direction
199 221 222 222 235 268 273 264 259 261 270 257 253 260 270 244 233 229 219 214 208 197 177 168 168 172 174 176 178 183 187 179 181 182 182 184 181 185 184 184 186 196 198 194
208 226 232 236 234 245 250 254 255 250 242 261 258 260 264 234 226 250 244 226 218 198 172 167 167 168 170 176 180 183 188 186 190 188 190 191 183 188 182 179 180 194 197 197
230 229 211 224 225 235 244 253 262 269 257 241 250 247 231 200 184 208 247 245 228 208 188 173 170 171 171 172 179 179 185 189 194 188 186 183 178 185 183 183 181 189 192 188
239 228 214 225 230 236 246 248 262 263 258 247 241 261 216 195 185 198 228 236 227 205 197 184 175 171 173 176 178 181 181 182 187 190 194 189 191 192 190 190 181 185 189 183
222 212 220 231 234 239 259 271 260 260 260 263 242 257 224 183 218 226 241 257 228 195 186 184 181 178 173 176 177 179 176 179 182 187 188 194 205 204 192 190 183 189 181 182
246 226 239 246 237 237 241 244 247 246 246 247 242 249 246 207 244 270 289 260 210 180 170 174 177 173 171 171 169 170 174 178 181 188 191 199 203 205 197 195 188 189 177 179
221 217 215 232 229 214 224 237 238 229 226 239 209 239 243 69 44 343 346 11 127 155 166 172 175 171 173 173 168 167 172 176 178 183 188 198 199 200 196 197 192 191 178 179
232 218 199 215 235 234 222 237 250 260 258 243 195 231 129 101 88 68 72 81 106 121 126 150 164 168 173 173 172 175 179 177 177 181 187 193 194 200 192 195 198 188 190 182
256 240 173 210 229 244 225 231 255 269 271 263 220 179 171 158 140 119 104 84 70 79 97 110 150 169 179 175 169 178 182 179 183 183 184 188 198 208 189 185 201 189 185 188
262 263 220 201 217 223 255 245 236 249 257 258 236 219 202 161 149 132 114 75 62 74 93 101 111 156 166 171 168 169 175 182 184 188 186 184 190 195 189 194 194 192 186 185
250 252 230 213 224 224 213 220 238 250 259 266 261 201 74 129 131 124 94 63 58 65 85 95 101 109 118 130 147 159 171 181 184 185 183 185 189 188 189 199 197 194 191 187
237 255 253 236 228 277 248 242 236 244 249 254 269 121 91 92 85 79 75 75 76 79 82 89 92 98 106 114 126 137 172 185 177 169 166 164 176 177 186 197 199 197 195 192
220 241 248 225 207 211 232 236 243 252 257 253 258 174 116 103 86 74 77 85 93 89 84 85 88 83 88 96 110 122 154 171 163 152 158 154 163 176 192 201 197 196 198 197
263 250 259 268 281 246 238 238 242 249 250 252 256 249 161 137 94 75 64 72 88 96 93 87 91 86 84 73 63 73 87 117 147 154 158 161 175 193 201 205 198 198 202 203
256 251 255 268 275 266 257 259 252 249 261 265 259 259 261 132 79 39 41 73 112 108 107 97 96 100 96 84 58 57 73 80 113 172 173 166 173 187 195 197 200 202 207 209
247 263 259 255 251 254 254 257 256 254 258 257 256 260 300 0 52 77 76 73 95 103 105 102 95 102 104 82 58 55 63 55 58 204 199 158 167 180 192 197 201 206 213 219
230 239 253 255 251 253 244 254 253 250 257 252 256 268 164 245 298 32 30 67 69 75 87 105 95 82 86 90 110 110 114 121 93 43 298 217 189 186 194 194 201 213 221 226
242 244 251 252 242 241 225 34 286 257 247 274 284 230 234 288 326 74 48 42 60 52 64 77 80 96 92 108 116 120 169 169 159 179 314 285 235 219 210 207 212 227 233 232
231 237 248 246 241 241 199 174 243 247 234 269 265 225 212 327 211 142 70 47 53 46 61 72 70 105 111 95 132 178 226 216 181 188 288 289 292 266 249 246 233 229 231 235
203 225 243 242 248 248 79 77 280 254 220 100 236 187 192 246 238 123 57 33 50 62 69 71 98 91 92 117 158 167 186 269 286 287 280 281 265 271 269 263 252 236 229 231
200 213 233 243 245 241 48 33 221 236 38 74 226 202 217 268 334 27 49 52 69 65 54 48 62 63 56 57 169 163 181 288 289 281 266 258 254 254 261 261 253 242 236 237
250 239 230 241 241 231 61 201 249 5 26 48 346 218 231 317 34 53 77 82 73 55 38 25 31 47 30 338 241 237 296 301 297 285 272 270 269 267 264 257 247 242 245 238
266 309 297 295 352 56 79 356 357 324 322 347 2 8 300 174 100 67 72 72 66 60 37 12 19 43 18 325 282 310 314 298 292 286 284 283 273 263 261 255 241 233 233 244
191 304 262 249 208 297 274 358 318 336 337 354 26 19 50 142 93 93 94 72 43 28 359 335 325 354 6 343 331 327 312 300 288 284 284 276 269 266 264 262 250 246 241 243
291 250 250 247 251 253 218 327 356 349 335 29 102 282 293 205 145 158 144 59 356 342 332 321 318 323 329 324 319 317 311 293 287 285 279 273 269 273 269 273 283 270 271 281
267 263 263 264 265 278 264 268 268 248 226 189 233 281 288 263 217 201 169 180 301 310 309 302 303 310 317 311 319 324 309 288 282 275 275 276 272 270 271 276 281 274 261 241